STARLINK-32010, 60279

Orbit data source: Space-Track

STARLINK-32010, 60279 is a payload satellite owned by SpaceX/Seattle (US) in LEO that was launched on Sun, 28 Jul 2024 UTC via an FALCON 9 launch vehicle from the Air Force Eastern Test Range (AFETR). Payload-class satellites include a variety of spacecraft equipped with specific instruments for various scientific and technological missions. These include communications satellites like Starlink; space stations such as the ISS; scientific satellites like the Hubble; Earth observation satellites from companies like Planet Labs, Umbra, and HawkEye 360; GPS; miniature CubeSats for education and research; and military/defense satellites.

Loading next visibility...
Identifier
60279, 2024-132B
Orbit
LEO
Last TLE update
13 hours ago
Origin
Manufacturer
SpaceX/Seattle
Mission
Operational spacecraft
Bus & Motor
STARLINK V2M, Unknown motor
Mass
730 kg wet, ~700 kg dry
Launch date (UTC)
2024-07-28 (11 months ago)
Launch vehicle
FALCON 9
Launch site
Air Force Eastern Test Range (AFETR)
Object type
Payload
Rocket body
Debris
Shape & HBR
Unknown
Radar Cross Section
Large (>1 m²)

Expand to show TLE details & history

TLE from 13 hours ago
0 STARLINK-32010
1 60279U 24132B   25181.88174372 -.00000266  00000-0  31642-5 0  9999
2 60279  53.1607 142.3290 0001382  87.6601 272.4558 15.30190723 53003
Epoch: 2025-06-30T21:09Z
TLE epoch observation values (Epoch: 2025-06-30T21:09:42.657Z)
Latitude
-0.00002°
Longitude
-94.28393°
Altitude
476.102 km
Speed
7.629 km/s
True Right ascension
09h 29m 18s
True Declination
0° 00' 00"
Sunlit
Object was in daylight at epoch
Visualization orbit readout
Latitude
52.82017°
Longitude
-17.59256°
Altitude
480.763 km
Speed
7.632 km/s
Apparent Right ascension
11h 55m 07s
Apparent Declination
10° 40' 42"
Sunlit
Object is in daylight
Visualization observer readout
Local Sidereal Time
21:42:18
Azimuth
321.215° NNW
Elevation
-30.779°
Doppler factor
1
Orbital elements
Apogee altitude
476.446 km
Perigee altitude
474.552 km
Semi-major axis
6,853.636 km
Eccentricity
0.00014
Inclination
53.1607°
RAAN
142.329°
Arg. of periapsis
87.6601°
True anomaly
Unknown
Mean anomaly
272.4558°
Eccentric anomaly
Unknown
Mean motion
3.82527 °/min
Orbital period
94.11 mins
BSTAR
0.0000031642
Loading maneuver chart data...
Loading SW <> Apogee altitude chart data...
Loading historical data...
Loading historical data...
Loading historical data...
Loading historical data...
Loading historical data...
Loading historical data...
Loading historical data...

STARLINK-32010 Visibility forecast

Observer location: undefined°, undefined°

Span
Click to sort rows by Start time (UTC) header in descending order
Start Az.
Max El. time (UTC)
Max El. Az.
Max El.
End time (UTC)
End Az.
7 mins2025-07-01 23:58:54.982Z228.83° WSW2025-07-02 00:02:54.982Z50.065° ENE42.91°2025-07-02 00:05:54.982Z50.104° ENE
4 mins2025-07-02 04:56:54.982Z341.203° N2025-07-02 04:58:54.982Z15.878° NNE16.024°2025-07-02 05:00:54.982Z53.463° ENE
6 mins2025-07-02 06:34:54.982Z314.877° NW2025-07-02 06:37:54.982Z89.267° E42.526°2025-07-02 06:40:54.982Z124.52° SE
|